Date String (YYYY-MM-DD hh:mm:ss) UTC,Instrument flags,absolute air pressure of the measurement (hPa),sample flow rate (lpm),inlet stack bypass flow (lpm),air temperature of the measurement (°C),ambient temperature measured by the external sensor (°C),aerosol sample conditioner tube jacket temperature (°C),OPC LED temperature (°C),internal box temperature (°C),relative humidity of the measurement (%),span deviation,mass concentration of particles derived from Lorenz-Mie calculation of OPC scattering (μg/m³),mass concentration of particles derived from Lorenz-Mie calculation of OPC scattering (μg/m³),mass concentration of particles derived from Lorenz-Mie calculation of OPC scattering (μg/m³)
DateTimeUTC,F1_M11,P_M11,Q1_M11,Q2_M11,T1_M11,T2_M11,T3_M11,T4_M11,T5_M11,U1_M11,ZSPAN_M11,X0_M11,X2_M11,X1_M11
2023-09-20 18:00:00,SystemResetWarning,0829.4,5.00,000.00,027.6,025.9,000.0,036.0,029.2,21.6,0000.0,0005.01,0002.29,0001.76
2023-09-20 18:01:00,SystemResetWarning,0829.3,5.00,000.00,027.7,026.2,000.0,036.0,029.3,21.7,0000.0,0005.03,0002.33,0001.79
2023-09-20 18:02:00,SystemResetWarning,0829.3,5.00,000.00,027.7,026.4,000.0,036.0,029.4,21.6,0000.0,0005.36,0002.41,0001.81
2023-09-20 18:03:00,SystemResetWarning,0829.3,5.01,000.00,027.8,026.6,000.0,036.0,029.4,21.8,0000.0,0005.65,0002.46,0001.83
2023-09-20 18:04:00,SystemResetWarning,0829.3,5.01,000.00,027.8,026.7,000.0,036.0,029.5,21.8,0000.0,0005.80,0002.50,0001.83
2023-09-20 18:05:00,SystemResetWarning,0829.4,5.00,000.00,027.9,026.7,000.0,036.1,029.5,21.8,0000.0,0005.85,0002.54,0001.84
2023-09-20 18:06:00,SystemResetWarning,0829.4,4.98,000.00,027.8,025.5,000.0,036.0,029.3,21.4,0000.0,0005.66,0002.50,0001.85
2023-09-20 18:07:00,SystemResetWarning,0829.3,5.01,000.00,027.7,024.2,000.0,036.0,028.9,21.6,0000.0,0005.54,0002.45,0001.86
2023-09-20 18:08:00,SystemResetWarning,0829.3,5.02,000.00,027.6,024.2,000.0,036.0,028.9,21.5,0000.0,0005.66,0002.46,0001.87
2023-09-20 18:09:00,SystemResetWarning,0829.2,5.00,000.00,027.6,024.5,000.0,036.0,028.9,21.9,0000.0,0005.81,0002.48,0001.87
2023-09-20 18:10:00,SystemResetWarning,0829.2,5.00,000.00,027.5,024.9,000.0,036.0,029.0,22.2,0000.0,0005.43,0002.52,0001.88
2023-09-20 18:11:00,SystemResetWarning,0829.2,5.01,000.00,027.6,025.2,000.0,036.0,029.0,22.1,0000.0,0006.38,0002.54,0001.89
2023-09-20 18:12:00,SystemResetWarning,0829.2,5.01,000.00,027.6,025.6,000.0,036.0,029.1,22.0,0000.0,0006.39,0002.57,0001.89
2023-09-20 18:13:00,SystemResetWarning,0829.2,5.00,000.00,027.6,025.9,000.0,036.0,029.2,22.1,0000.0,0006.33,0002.59,0001.90
2023-09-20 18:14:00,SystemResetWarning,0829.2,4.99,000.00,027.7,026.1,000.0,036.0,029.3,22.2,0000.0,0006.33,0002.64,0001.90
2023-09-20 18:15:00,SystemResetWarning,0829.1,5.00,000.00,027.7,026.3,000.0,036.0,029.3,22.0,0000.0,0006.29,0002.63,0001.91
2023-09-20 18:16:00,SystemResetWarning,0829.1,5.01,000.00,027.7,026.5,000.0,036.0,029.4,22.2,0000.0,0006.57,0002.66,0001.93
2023-09-20 18:17:00,SystemResetWarning,0829.1,5.01,000.00,027.8,026.7,000.0,036.0,029.5,22.5,0000.0,0006.79,0002.71,0001.94
2023-09-20 18:18:00,SystemResetWarning,0829.1,4.99,000.00,027.8,026.9,000.0,036.1,029.5,22.4,0000.0,0006.96,0002.78,0001.95
2023-09-20 18:19:00,SystemResetWarning,0829.1,4.98,000.00,027.8,026.1,000.0,036.1,029.4,22.7,0000.0,0006.90,0002.79,0001.96
2023-09-20 18:20:00,SystemResetWarning,0828.9,5.01,000.00,027.7,024.5,000.0,036.0,028.9,22.6,0000.0,0006.72,0002.77,0001.99
2023-09-20 18:21:00,SystemResetWarning,0828.9,5.00,000.00,027.6,024.2,000.0,036.0,028.9,22.8,0000.0,0006.04,0002.78,0002.00
2023-09-20 18:22:00,SystemResetWarning,0829.0,5.01,000.00,027.6,024.5,000.0,035.9,028.9,23.0,0000.0,0005.04,0002.80,0002.01
2023-09-20 18:23:00,SystemResetWarning,0829.0,5.01,000.00,027.5,024.8,000.0,035.9,028.9,23.0,0000.0,0005.12,0002.81,0002.01
2023-09-20 18:24:00,SystemResetWarning,0829.0,4.99,000.00,027.5,025.2,000.0,035.9,029.0,22.9,0000.0,0005.10,0002.80,0002.01
2023-09-20 18:25:00,SystemResetWarning,0828.9,5.00,000.00,027.6,025.5,000.0,036.0,029.1,23.0,0000.0,0005.01,0002.73,0002.02
2023-09-20 18:26:00,SystemResetWarning,0828.9,5.00,000.00,027.6,025.9,000.0,036.0,029.2,23.2,0000.0,0005.51,0002.75,0002.03
2023-09-20 18:27:00,SystemResetWarning,0828.9,5.00,000.00,027.7,026.2,000.0,036.0,029.3,23.0,0000.0,0006.12,0002.72,0002.02
2023-09-20 18:28:00,SystemResetWarning,0828.9,5.00,000.00,027.7,026.4,000.0,036.0,029.4,23.0,0000.0,0005.93,0002.71,0002.02
2023-09-20 18:29:00,SystemResetWarning,0829.0,4.99,000.00,027.7,026.6,000.0,036.0,029.4,23.2,0000.0,0006.91,0002.68,0002.03
2023-09-20 18:30:00,SystemResetWarning,0829.0,5.00,000.00,027.8,026.8,000.0,036.0,029.5,22.6,0000.0,0007.59,0002.73,0002.05
2023-09-20 18:31:00,SystemResetWarning,0829.0,5.00,000.00,027.8,026.8,000.0,036.1,029.6,22.8,0000.0,0007.74,0002.80,0002.05
2023-09-20 18:32:00,SystemResetWarning,0828.9,4.99,000.00,027.8,025.7,000.0,036.0,029.3,22.6,0000.0,0007.80,0002.86,0002.05
2023-09-20 18:33:00,SystemResetWarning,0828.7,5.01,000.00,027.7,024.2,000.0,036.0,029.0,22.3,0000.0,0007.79,0002.84,0002.05
2023-09-20 18:34:00,SystemResetWarning,0828.8,5.01,000.00,027.6,024.1,000.0,036.0,029.0,22.9,0000.0,0007.79,0002.87,0002.07
2023-09-20 18:35:00,SystemResetWarning,0828.8,5.01,000.00,027.6,024.4,000.0,035.9,028.9,23.4,0000.0,0007.72,0002.86,0002.10
2023-09-20 18:36:00,SystemResetWarning,0828.7,5.00,000.00,027.6,024.8,000.0,035.9,029.0,22.5,0000.0,0007.68,0002.89,0002.12
2023-09-20 18:37:00,SystemResetWarning,0828.8,4.99,000.00,027.6,025.2,000.0,035.9,029.1,22.5,0000.0,0008.07,0002.89,0002.13
2023-09-20 18:38:00,SystemResetWarning,0828.8,5.00,000.00,027.6,025.6,000.0,035.9,029.2,22.6,0000.0,0007.90,0002.91,0002.15
2023-09-20 18:39:00,SystemResetWarning,0828.8,5.00,000.00,027.6,025.9,000.0,036.0,029.3,22.2,0000.0,0008.04,0002.94,0002.16
2023-09-20 18:40:00,SystemResetWarning,0828.7,4.99,000.00,027.7,026.2,000.0,036.0,029.3,22.7,0000.0,0007.54,0002.96,0002.18
2023-09-20 18:41:00,SystemResetWarning,0828.8,4.99,000.00,027.7,026.4,000.0,036.0,029.4,23.1,0000.0,0007.71,0002.99,0002.19
2023-09-20 18:42:00,SystemResetWarning,0828.8,5.01,000.00,027.8,026.6,000.0,036.0,029.5,23.2,0000.0,0007.69,0002.97,0002.21
2023-09-20 18:43:00,SystemResetWarning,0828.8,5.01,000.00,027.8,026.8,000.0,036.0,029.5,22.2,0000.0,0007.75,0003.01,0002.21
2023-09-20 18:44:00,SystemResetWarning,0828.8,4.99,000.00,027.9,026.8,000.0,036.1,029.6,21.7,0000.0,0008.17,0003.07,0002.23
2023-09-20 18:45:00,SystemResetWarning,0828.7,4.99,000.00,027.8,025.5,000.0,036.0,029.2,22.0,0000.0,0008.43,0003.10,0002.24
2023-09-20 18:46:00,SystemResetWarning,0828.7,5.01,000.00,027.7,024.2,000.0,036.0,028.9,23.3,0000.0,0008.51,0003.10,0002.23
2023-09-20 18:47:00,SystemResetWarning,0828.6,5.01,000.00,027.6,024.3,000.0,036.0,029.0,23.9,0000.0,0009.24,0003.11,0002.22
2023-09-20 18:48:00,SystemResetWarning,0828.6,5.00,000.00,027.6,024.6,000.0,035.9,028.9,22.1,0000.0,0009.22,0003.11,0002.22
2023-09-20 18:49:00,SystemResetWarning,0828.6,4.99,000.00,027.6,025.0,000.0,036.0,029.0,22.1,0000.0,0009.22,0003.12,0002.23
2023-09-20 18:50:00,SystemResetWarning,0828.6,5.00,000.00,027.6,025.3,000.0,036.0,029.1,22.3,0000.0,0009.31,0003.14,0002.25
2023-09-20 18:51:00,SystemResetWarning,0828.6,5.01,000.00,027.6,025.7,000.0,036.0,029.2,21.9,0000.0,0009.25,0003.14,0002.25
2023-09-20 18:52:00,SystemResetWarning,0828.6,5.00,000.00,027.6,026.0,000.0,036.0,029.2,22.5,0000.0,0009.06,0003.13,0002.25
2023-09-20 18:53:00,SystemResetWarning,0828.6,5.00,000.00,027.7,026.3,000.0,036.0,029.3,21.7,0000.0,0008.98,0003.12,0002.25
2023-09-20 18:54:00,SystemResetWarning,0828.6,5.00,000.00,027.7,026.5,000.0,036.0,029.4,21.3,0000.0,0009.07,0003.10,0002.26
2023-09-20 18:55:00,SystemResetWarning,0828.6,5.00,000.00,027.8,026.7,000.0,036.0,029.5,21.8,0000.0,0009.00,0003.07,0002.26
2023-09-20 18:56:00,SystemResetWarning,0828.6,4.98,000.00,027.8,026.5,000.0,036.0,029.5,22.1,0000.0,0008.89,0003.02,0002.27
2023-09-20 18:57:00,SystemResetWarning,0828.6,4.99,000.00,027.7,024.9,000.0,036.0,029.0,21.7,0000.0,0009.23,0003.00,0002.27
2023-09-20 18:58:00,SystemResetWarning,0828.6,5.02,000.00,027.6,024.1,000.0,035.9,028.9,21.9,0000.0,0008.80,0003.04,0002.28
2023-09-20 18:59:00,SystemResetWarning,0828.5,5.00,000.00,027.6,024.3,000.0,035.9,028.9,21.6,0000.0,0008.63,0003.09,0002.30
